GW3819 Weather Reports


Display with metric or nautical units.
time (UTC)temp
F
wind
direction
speed
MPH
gust
MPH
rain 1hr
in
rain 24hr
in
rain mn
in
humidity
%
barometer
mb
20260506153013 51 235 9.0 27.0 0.00 0.00 0.00 48 1004.8
20260506151516 52 282 5.0 22.0 0.00 0.00 0.00 48 1004.8
20260506150012 51 303 6.0 15.0 0.00 0.00 0.00 48 1004.8
20260506144509 50 208 5.0 15.0 0.00 0.00 0.00 51 1004.9
20260506143009 50 41 6.0 15.0 0.00 0.00 0.00 55 1005.1
20260506141507 52 211 5.0 17.0 0.00 0.00 0.00 55 1005.2
20260506140013 49 340 5.0 12.0 0.00 0.00 0.00 59 1005.1
20260506134505 47 169 10.0 16.0 0.00 0.00 0.00 61 1005.5
20260506133004 47 222 7.0 18.0 0.00 0.00 0.00 65 1005.2
20260506131506 47 18 3.0 15.0 0.00 0.00 0.00 65 1005.2
20260506130003 47 166 5.0 19.0 0.00 0.00 0.00 64 1005.2
20260506124505 47 192 10.0 21.0 0.00 0.00 0.00 62 1005.1
20260506123001 47 221 7.0 14.0 0.00 0.00 0.00 67 1005.0
20260506121601 48 212 4.0 11.0 0.00 0.00 0.00 63 1004.7
20260506114559 51 322 1.0 4.0 0.00 0.00 0.00 65 1004.5
20260506113058 52 188 1.0 5.0 0.00 0.00 0.00 63 1004.4
20260506111556 52 289 1.0 5.0 0.00 0.00 0.00 66 1004.4
20260506110054 52 262 1.0 5.0 0.00 0.00 0.00 64 1004.7
20260506104556 52 248 2.0 8.0 0.00 0.00 0.00 64 1004.9
20260506103052 50 303 1.0 4.0 0.00 0.00 0.00 72 1005.2
20260506101546 48 340 2.0 9.0 0.00 0.00 0.00 67 1005.4
20260506100053 46 71 3.0 12.0 0.00 0.00 0.00 74 1005.4
20260506094539 47 15 1.0 9.0 0.00 0.00 0.00 71 1005.6
20260506093035 46 360 1.0 6.0 0.00 0.00 0.00 73 1005.5
20260506091534 45 231 0.0 6.0 0.00 0.00 0.00 77 1005.7
20260506090030 45 338 2.0 15.0 0.00 0.00 0.00 74 1005.6
20260506084526 44 82 3.0 9.0 0.00 0.00 0.00 75 1005.8
20260506083024 44 154 3.0 10.0 0.00 0.00 0.00 76 1005.8
20260506081622 44 49 4.0 12.0 0.00 0.00 0.00 78 1005.7
20260506073019 42 161 3.0 7.0 0.00 0.00 0.00 81 1005.9
20260506071518 42 212 1.0 6.0 0.00 0.00 0.00 81 1005.8
20260506061513 41 98 4.0 13.0 0.00 0.00 0.00 83 1006.2
20260506044559 40 155 3.0 12.0 0.00 0.00 0.00 83 1006.4
20260506043056 40 138 5.0 11.0 0.00 0.00 0.00 84 1006.5
20260506041602 39 360 0.0 4.0 0.00 0.00 0.00 83 1006.5
20260506040105 39 355 0.0 3.0 0.00 0.00 0.00 83 1006.7
20260506034553 39 313 1.0 4.0 0.00 0.00 0.00 83 1006.7
20260506033051 40 278 1.0 10.0 0.00 0.00 0.00 83 1006.8
20260506031550 40 125 3.0 9.0 0.00 0.00 0.00 83 1006.8
20260506030059 39 290 3.0 6.0 0.00 0.00 0.00 83 1007.1
20260506024554 39 186 1.0 3.0 0.00 0.00 0.00 82 1007.2
20260506023044 40 181 3.0 9.0 0.00 0.00 0.00 82 1007.5
20260506021543 39 113 1.0 2.0 0.00 0.00 0.00 81 1007.7
20260506020041 40 155 1.0 5.0 0.00 0.00 0.00 82 1007.6
20260506014553 39 42 1.0 4.0 0.00 0.00 0.00 82 1007.9
20260506013042 39 66 0.0 2.0 0.00 0.00 0.00 82 1008.0
20260506011540 39 91 1.0 3.0 0.00 0.00 0.00 82 1007.7
20260506010048 39 40 0.0 3.0 0.00 0.00 0.00 81 1007.6
20260506004546 41 40 5.0 11.0 0.00 0.00 0.00 78 1007.8
20260506003040 41 225 5.0 11.0 0.00 0.00 0.00 78 1008.0
20260506001535 41 178 2.0 7.0 0.00 0.00 0.00 78 1007.9
20260506000033 41 165 1.0 3.0 0.00 0.00 0.00 78 1007.9
20260505234527 42 360 2.0 5.0 0.00 0.00 0.00 77 1007.8
20260505233025 42 127 4.0 12.0 0.00 0.00 0.00 76 1008.0
20260505231527 42 111 3.0 9.0 0.00 0.00 0.00 76 1008.0
20260505230026 43 67 3.0 9.0 0.00 0.00 0.00 74 1008.1
20260505224519 43 59 3.0 9.0 0.00 0.00 0.00 73 1008.2
20260505223016 43 152 5.0 13.0 0.00 0.00 0.00 74 1008.2
20260505221518 44 185 4.0 16.0 0.00 0.00 0.00 71 1008.3
20260505220009 44 124 5.0 13.0 0.00 0.00 0.00 73 1008.3
20260505214512 44 171 3.0 8.0 0.00 0.00 0.00 72 1008.3
20260505213010 44 137 2.0 9.0 0.00 0.00 0.00 72 1008.3
20260505211508 44 165 2.0 7.0 0.00 0.00 0.00 70 1008.3
20260505210007 44 142 1.0 6.0 0.00 0.00 0.00 71 1008.2
20260505204506 44 140 5.0 11.0 0.00 0.00 0.00 72 1008.0
20260505203018 45 61 3.0 11.0 0.00 0.00 0.00 71 1008.0
20260505201503 45 148 2.0 7.0 0.00 0.00 0.00 68 1007.9
20260505200003 46 185 2.0 10.0 0.00 0.00 0.00 67 1007.7
20260505194502 47 200 7.0 12.0 0.00 0.00 0.00 64 1007.6
20260505193001 47 198 7.0 11.0 0.00 0.00 0.00 63 1007.5
20260505191607 47 188 6.0 11.0 0.00 0.00 0.00 62 1007.1
20260505184603 48 190 7.0 14.0 0.00 0.00 0.00 58 1006.9
20260505183058 48 225 5.0 17.0 0.00 0.00 0.00 59 1006.8
20260505181558 48 159 4.0 14.0 0.00 0.00 0.00 59 1006.8
20260505180057 49 139 4.0 10.0 0.00 0.00 0.00 58 1006.7
20260505174557 49 31 3.0 8.0 0.00 0.00 0.00 57 1006.6
20260505173059 49 71 3.0 10.0 0.00 0.00 0.00 57 1006.6
20260505171556 50 205 5.0 13.0 0.00 0.00 0.00 55 1006.4
20260505170055 50 292 6.0 20.0 0.00 0.00 0.00 55 1006.2
20260505164555 50 173 8.0 15.0 0.00 0.00 0.00 56 1006.3
20260505163054 51 180 6.0 15.0 0.00 0.00 0.00 53 1006.3
20260505161553 53 5 7.0 18.0 0.00 0.00 0.00 51 1006.0